Weather in Pereyaslavka

Russia / Khabarovsk Krai     47°58′07″N   135°03′11″E
temp.,
°C
wind,
m/s
gust,
m/s
humid.,
%
clouds,
%
prec.,
mm/h
press.,
hPa
HPBL,
m
2 march, tue
tue201:00−23w33860 0.0 103027
04:00−24sw22880 0.0 102920
07:00−26sw22910 0.0 103019
10:00−22sw33900 0.0 1029129
13:00−16w47760 0.0 1028456
16:00−14w46720 0.0 1028647
19:00−19sw33880 0.0 102921
22:00−22sw23890 0.0 103120
3 march, wed
wed301:00−23ssw22920 0.0 103020
04:00−24s22910 0.0 103120
07:00−23se22850 0.0 103020
10:00−18se368033 0.0 1029233
13:00−11sse487386 0.0 1026512
16:00−7s477293 0.0 1022757
19:00−10wsw118198 0.0 102021
22:00−9sse229699 0.6 102049
4 march, thu
thu401:00−7s2496100 0.8 1017118
04:00−5s2697100 2.3 1016215
07:00−5s3697100 1.1 1015159
10:00−3sw479697 1.5 1015424
13:00−2wsw2398100 0.4 1014271
16:000sw410100100 0.6 1012575
19:00+1sw51298100 0.8 1011611
22:000sw61198100 1.3 1009530
5 march, fri
fri501:000w71297100 1.5 1009699
04:00−8w5108783 1.8 1012224
07:00−15w511870 0.0 1017242
10:00−14w58869 0.0 1021352
13:00−13w687834 0.0 1022600
16:00−16w8117417 0.0 1024798
19:00−20wsw511830 0.0 1026298
22:00−22wsw47880 0.0 1029162
6 march, sat
sat601:00−25wsw48890 0.0 1029138
04:00−25wsw512870 0.0 1030286
07:00−24wsw613880 0.0 1032329
10:00−20w611820 0.0 1032606
13:00−17w710770 0.0 1032954
16:00−14w711762 0.0 10311045
19:00−16wsw614800 0.0 1031366
22:00−17wsw512810 0.0 1032271